| time (UTC) | temp F | wind direction | speed MPH | gust MPH | rain 1hr in | rain 24hr in | rain mn in | humidity % | barometer mb |
| 20260508014501 | 50 | 229 | 7.0 | 11.0 | 0.00 | 0.00 | 0.00 | 78 | 1012.0 |
| 20260508013001 | 50 | 214 | 7.0 | 9.0 | 0.00 | 0.00 | 0.00 | 79 | 1011.9 |
| 20260508010005 | 51 | 228 | 7.0 | 11.0 | 0.00 | 0.00 | 0.00 | 77 | 1011.9 |
| 20260508004502 | 51 | 228 | 9.0 | 12.0 | 0.00 | 0.00 | 0.00 | 79 | 1012.1 |
| 20260508001503 | 52 | 222 | 6.0 | 655.0 | 1.24 | 0.00 | 0.00 | 79 | |
| 20260508000005 | 52 | 231 | 7.0 | 11.0 | 0.00 | 0.00 | 0.00 | 79 | 1012.4 |
| 20260507234501 | 52 | 236 | 7.0 | 10.0 | 0.00 | 0.00 | 0.00 | 78 | 1012.5 |
| 20260507233002 | 52 | 238 | 9.0 | 12.0 | 0.00 | 0.00 | 0.00 | 77 | 1012.6 |
| 20260507231502 | 52 | 252 | 9.0 | 13.0 | 0.00 | 0.00 | 0.00 | 73 | 1013.1 |
| 20260507230006 | 52 | 248 | 6.0 | 10.0 | 0.00 | 0.00 | 0.00 | 74 | 1013.2 |
| 20260507224503 | 52 | 264 | 6.0 | 11.0 | 0.00 | 0.00 | 0.00 | 77 | 1013.5 |
| 20260507223001 | 51 | 290 | 4.0 | 9.0 | 0.00 | 0.00 | 0.00 | 80 | 1013.5 |
| 20260507221501 | 50 | 322 | 8.0 | 15.0 | 0.00 | 0.00 | 0.00 | 80 | 1014.0 |
| 20260507220004 | 55 | 295 | 9.0 | 18.0 | 0.00 | 0.00 | 0.00 | 59 | 1013.4 |
| 20260507214502 | 57 | 288 | 6.0 | 11.0 | 0.00 | 0.00 | 0.00 | 52 | 1012.5 |
| 20260507213001 | 58 | 288 | 8.0 | 17.0 | 0.00 | 0.00 | 0.00 | 50 | 1012.3 |
| 20260507211502 | 59 | 289 | 6.0 | 12.0 | 0.00 | 0.00 | 0.00 | 51 | 1012.3 |
| 20260507210006 | 57 | 281 | 6.0 | 13.0 | 0.00 | 0.00 | 0.00 | 52 | 1012.6 |
| 20260507204502 | 57 | 307 | 8.0 | 14.0 | 0.00 | 0.00 | 0.00 | 50 | 1012.7 |
| 20260507203002 | 57 | 293 | 7.0 | 14.0 | 0.00 | 0.00 | 0.00 | 48 | 1012.6 |
| 20260507201501 | 58 | 272 | 7.0 | 11.0 | 0.00 | 0.00 | 0.00 | 48 | 1012.8 |
| 20260507194501 | 57 | 283 | 8.0 | 14.0 | 0.00 | 0.00 | 0.00 | 49 | 1013.4 |
| 20260507193001 | 57 | 283 | 7.0 | 12.0 | 0.00 | 0.00 | 0.00 | 50 | 1013.5 |
| 20260507191501 | 57 | 274 | 7.0 | 12.0 | 0.00 | 0.00 | 0.00 | 49 | 1013.7 |
| 20260507190005 | 57 | 273 | 8.0 | 15.0 | 0.00 | 0.00 | 0.00 | 49 | 1013.7 |
| 20260507184502 | 56 | 312 | 6.0 | 12.0 | 0.00 | 0.00 | 0.00 | 52 | 1013.7 |
| 20260507183001 | 56 | 279 | 7.0 | 13.0 | 0.00 | 0.00 | 0.00 | 52 | 1014.0 |
| 20260507181501 | 56 | 281 | 3.0 | 9.0 | 0.00 | 0.00 | 0.00 | 54 | 1013.9 |
| 20260507174502 | 55 | 289 | 8.0 | 16.0 | 0.00 | 0.00 | 0.00 | 56 | 1014.4 |
| 20260507170005 | 54 | 301 | 7.0 | 11.0 | 0.00 | 0.00 | 0.00 | 54 | 1015.0 |
| 20260507164501 | 54 | 258 | 5.0 | 12.0 | 0.00 | 0.00 | 0.00 | 59 | 1015.4 |
| 20260507154502 | 52 | 293 | 4.0 | 10.0 | 0.00 | 0.00 | 0.00 | 59 | 1015.6 |
| 20260507153001 | 52 | 293 | 5.0 | 11.0 | 0.00 | 0.00 | 0.00 | 59 | 1015.6 |
| 20260507151501 | 51 | 316 | 5.0 | 10.0 | 0.00 | 0.00 | 0.00 | 59 | 1015.4 |
| 20260507150005 | 50 | 271 | 4.0 | 10.0 | 0.00 | 0.00 | 0.00 | 57 | 1015.3 |
| 20260507144500 | 50 | 281 | 4.0 | 9.0 | 0.00 | 0.00 | 0.00 | 58 | 1015.6 |
| 20260507141500 | 48 | 309 | 4.0 | 9.0 | 0.00 | 0.00 | 0.00 | 61 | 1015.6 |
| 20260507140003 | 48 | 315 | 4.0 | 9.0 | 0.00 | 0.00 | 0.00 | 63 | 1015.6 |
| 20260507134501 | 47 | 309 | 4.0 | 8.0 | 0.00 | 0.00 | 0.00 | 62 | 1015.6 |
| 20260507133000 | 46 | 301 | 4.0 | 10.0 | 0.00 | 0.00 | 0.00 | 61 | 1015.7 |
| 20260507131502 | 46 | 298 | 3.0 | 6.0 | 0.00 | 0.00 | 0.00 | 66 | 1015.6 |
| 20260507130003 | 45 | 319 | 3.0 | 5.0 | 0.00 | 0.00 | 0.00 | 70 | 1015.6 |
| 20260507124501 | 44 | 304 | 2.0 | 4.0 | 0.00 | 0.00 | 0.00 | 72 | 1015.4 |
| 20260507123002 | 42 | 300 | 2.0 | 3.0 | 0.00 | 0.00 | 0.00 | 75 | 1015.4 |
| 20260507121500 | 42 | 297 | 1.0 | 2.0 | 0.00 | 0.00 | 0.00 | 78 | 1015.1 |
| 20260507120005 | 41 | 303 | 0.0 | 0.0 | 0.00 | 0.00 | 0.00 | 78 | 1015.2 |
| 20260507114500 | 40 | 302 | 0.0 | 0.0 | 0.00 | 0.00 | 0.00 | 75 | 1015.3 |
| 20260507113000 | 40 | 302 | 0.0 | 1.0 | 0.00 | 0.00 | 0.00 | 77 | 1015.1 |
| 20260507111500 | 40 | 302 | 1.0 | 1.0 | 0.00 | 0.00 | 0.00 | 77 | 1014.9 |
| 20260507110005 | 40 | 300 | 1.0 | 3.0 | 0.00 | 0.00 | 0.00 | 75 | 1015.0 |
| 20260507104500 | 40 | 287 | 1.0 | 2.0 | 0.00 | 0.00 | 0.00 | 75 | 1014.8 |
| 20260507103000 | 40 | 288 | 1.0 | 2.0 | 0.00 | 0.00 | 0.00 | 74 | 1014.8 |
| 20260507101500 | 40 | 290 | 1.0 | 3.0 | 0.00 | 0.00 | 0.00 | 75 | 1014.8 |
| 20260507100003 | 40 | 288 | 1.0 | 2.0 | 0.00 | 0.00 | 0.00 | 76 | 1014.8 |
| 20260507094501 | 40 | 295 | 1.0 | 2.0 | 0.00 | 0.00 | 0.00 | 77 | 1014.8 |
| 20260507093000 | 40 | 302 | 1.0 | 2.0 | 0.00 | 0.00 | 0.00 | 77 | 1014.8 |
| 20260507091500 | 39 | 304 | 2.0 | 2.0 | 0.00 | 0.00 | 0.00 | 78 | 1014.6 |
| 20260507090003 | 40 | 302 | 2.0 | 2.0 | 0.00 | 0.00 | 0.00 | 77 | 1014.7 |
| 20260507084459 | 39 | 315 | 1.0 | 2.0 | 0.00 | 0.00 | 0.00 | 80 | 1014.8 |
| 20260507083000 | 40 | 314 | 1.0 | 2.0 | 0.00 | 0.00 | 0.00 | 79 | 1014.6 |
| 20260507081500 | 39 | 314 | 1.0 | 2.0 | 0.00 | 0.00 | 0.00 | 80 | 1014.7 |
| 20260507080003 | 39 | 313 | 1.0 | 2.0 | 0.00 | 0.00 | 0.00 | 81 | 1014.6 |
| 20260507074501 | 40 | 314 | 1.0 | 2.0 | 0.00 | 0.00 | 0.00 | 79 | 1014.7 |
| 20260507072959 | 40 | 314 | 1.0 | 2.0 | 0.00 | 0.00 | 0.00 | 80 | 1014.7 |
| 20260507071500 | 40 | 307 | 1.0 | 2.0 | 0.00 | 0.00 | 0.00 | 80 | 1014.8 |
| 20260507070009 | 41 | 301 | 1.0 | 2.0 | 0.00 | 0.00 | 0.00 | 75 | 1014.8 |
| 20260507060004 | 42 | 319 | 2.0 | 3.0 | 0.00 | 0.01 | 0.00 | 77 | 1015.1 |
| 20260507053001 | 44 | 304 | 2.0 | 3.0 | 0.00 | 0.06 | 0.00 | 75 | 1015.2 |
| 20260507051500 | 44 | 305 | 2.0 | 4.0 | 0.00 | 0.06 | 0.00 | 74 | 1015.0 |
| 20260507050004 | 44 | 304 | 2.0 | 4.0 | 0.00 | 0.06 | 0.00 | 74 | 1015.0 |
| 20260507044502 | 44 | 302 | 2.0 | 4.0 | 0.00 | 0.12 | 0.00 | 75 | 1015.0 |
| 20260507043002 | 45 | 302 | 2.0 | 4.0 | 0.00 | 0.12 | 0.00 | 73 | 1014.9 |
| 20260507041502 | 46 | 301 | 2.0 | 4.0 | 0.00 | 0.12 | 0.00 | 72 | 1014.9 |
| 20260507040006 | 46 | 304 | 1.0 | 3.0 | 0.00 | 0.12 | 0.00 | 72 | 1014.9 |
| 20260507034504 | 47 | 300 | 2.0 | 3.0 | 0.00 | 0.25 | 0.12 | 71 | 1014.7 |
| 20260507033002 | 47 | 295 | 2.0 | 3.0 | 0.00 | 0.25 | 0.12 | 70 | 1014.7 |
| 20260507031501 | 48 | 285 | 2.0 | 3.0 | 0.00 | 0.25 | 0.12 | 70 | 1014.7 |
| 20260507024502 | 48 | 287 | 1.0 | 3.0 | 0.00 | 0.43 | 0.12 | 70 | 1014.4 |
| 20260507021503 | 48 | 300 | 1.0 | 2.0 | 0.00 | 0.43 | 0.12 | 71 | 1014.3 |
| 20260507020006 | 49 | 300 | 1.0 | 2.0 | 0.00 | 0.43 | 0.12 | 70 | 1014.3 |